Location: Bruderhein
(53.8035°N, 112.9265°W)
Time: 09:19:51
(UTC+00:00)

RS-15 - Pass Details

Date: 01 April 2023
Orbit: 1885 x 2159 km, 64.8° (Epoch: 29 May)

Event Time Altitude Azimuth Distance (km) Brightness Sun altitude
Rises 05:05:21 0° 301° (WNW) 5,681 11.7 -23.8°
Reaches altitude 10° 05:08:59 10° 305° (NW) 4,662 11.0 -24.2°
Maximum altitude 05:21:05 60° 25° (NNE) 2,325 8.4 -25.3°
Enters shadow 05:29:21 22° 98° (E) 3,587 9.0 -26.0°
